GEFSMA_con_probscp_156.txt.gz
Probability
1 2 3 3 3 1 0 0 0 0 0 0 0 0 0 0 0 0 0 0 0 0 0 0 0 0 0 0 0 0 0 0 0 0 0 0 0 0 0 0 0 0 0
1 2 3 3 3 2 1 1 0 0 0 0 0 0 0 0 0 0 0 0 0 0 0 0 0 0 0 0 0 0 0 0 0 0 0 0 0 0 0 0 0 0 0
1 2 3 3 3 3 3 2 1 0 0 0 0 0 0 0 0 0 0 0 0 0 0 0 0 0 0 0 0 0 0 0 0 0 0 0 0 0 0 0 0 0 0
3 2 2 3 3 3 3 2 1 0 0 0 0 0 0 0 0 0 0 0 0 0 0 0 0 0 0 0 0 0 0 0 0 0 0 0 0 0 0 0 0 0 0
5 3 3 4 4 4 4 3 1 1 0 0 0 0 0 0 0 0 0 0 0 0 0 0 0 0 0 0 0 0 0 0 0 0 0 0 0 0 0 0 0 0 0
8 7 5 6 6 5 6 4 3 2 1 0 0 0 0 0 0 0 0 0 0 0 0 0 0 0 0 0 0 0 0 0 0 0 0 0 0 0 0 0 0 0 0
12 10 8 9 9 8 7 6 4 3 1 0 0 0 0 0 0 0 0 0 0 0 0 0 0 0 0 0 0 0 0 0 0 0 0 0 0 0 0 0 0 0 0
14 12 10 11 12 11 9 8 6 4 3 2 2 2 1 0 0 0 0 0 0 0 0 0 0 0 0 0 0 0 0 0 0 0 0 0 0 0 0 1 1 1 1
15 14 11 11 12 11 8 7 6 6 5 4 4 4 2 0 0 0 0 0 0 0 0 0 0 0 0 0 0 0 0 0 0 0 0 0 0 0 1 2 2 2 2
15 14 11 11 11 10 7 5 4 5 6 6 7 6 3 1 1 1 0 0 0 0 0 0 0 0 1 1 2 1 0 0 0 0 0 0 0 0 1 2 3 3 3
14 13 11 11 10 9 8 6 4 5 6 7 7 7 6 5 3 2 1 0 0 0 0 1 1 1 2 2 2 1 0 0 0 0 0 0 0 0 1 2 3 3 3
15 12 12 12 11 10 8 7 7 7 7 7 7 7 8 6 4 3 2 1 0 1 1 2 2 2 3 2 2 1 0 0 0 0 0 0 0 0 0 1 2 3 3
15 12 12 13 12 9 8 8 9 9 8 6 5 6 8 6 5 5 4 2 2 2 3 2 1 2 2 2 2 1 0 0 0 0 0 0 0 0 0 0 1 2 2
12 11 10 11 10 9 10 11 12 10 8 7 6 6 8 8 8 7 6 4 3 3 3 2 1 1 2 3 3 1 1 0 0 0 0 0 0 0 0 0 0 1 1
11 10 9 8 8 9 12 16 16 13 11 10 9 9 9 9 9 9 7 4 3 3 3 3 2 2 3 3 3 3 2 1 0 0 0 0 0 0 0 0 0 0 0
11 10 9 8 9 10 13 18 18 15 13 13 13 12 11 10 10 9 7 5 4 4 3 3 4 5 5 4 5 6 4 2 1 0 0 0 0 0 0 0 0 0 0
9 10 10 11 12 13 14 16 16 15 13 13 13 14 14 14 12 10 9 8 8 7 6 5 6 10 11 9 9 9 6 2 1 0 0 0 0 0 0 0 0 0 0
8 8 9 11 13 14 15 15 15 15 15 14 14 15 16 17 16 13 12 12 13 13 10 8 10 14 15 12 12 11 7 4 2 0 0 0 0 0 0 0 0 0 0
9 7 7 8 10 12 13 15 16 17 18 18 17 17 16 17 17 15 14 15 16 15 14 11 11 14 13 12 13 10 9 9 6 1 0 0 0 0 0 0 0 0 0
8 6 4 5 7 8 9 12 16 19 20 19 18 16 14 13 13 14 14 15 15 16 15 13 11 13 14 15 14 11 11 13 10 4 2 1 0 1 1 0 0 0 0
5 4 3 3 4 4 4 8 13 16 17 17 15 13 9 7 8 8 9 11 13 15 15 12 11 13 16 17 15 12 11 13 12 9 7 3 1 3 3 1 0 0 0
4 5 3 3 3 2 1 3 7 10 13 15 14 11 8 6 5 4 4 5 7 10 10 9 9 12 14 15 14 11 11 12 13 13 11 6 4 5 5 2 0 0 0
9 9 7 7 5 2 0 0 2 5 11 15 15 13 9 7 6 5 2 1 2 4 4 4 5 7 9 12 12 11 11 12 12 14 13 8 5 5 4 2 1 0 0
16 15 13 11 8 3 0 0 1 4 10 14 14 13 11 9 9 7 4 3 3 2 1 1 2 3 5 7 9 10 11 11 10 11 12 8 5 4 3 4 2 0 0
19 17 15 11 8 4 1 0 1 5 9 10 11 10 10 10 7 4 5 6 6 4 2 1 0 0 1 2 5 7 7 7 6 7 9 8 5 3 3 4 3 1 0
19 16 13 10 7 4 2 1 2 5 8 8 9 9 8 7 5 3 5 8 8 7 4 2 1 0 0 0 2 4 4 4 3 4 7 8 6 2 1 2 3 2 1

GEFSMA_con_probscp_162.txt.gz
Probability
5 7 6 3 1 0 0 0 0 0 1 0 0 0 0 0 0 0 0 0 0 0 0 0 0 0 0 0 0 0 0 0 0 0 0 0 0 0 0 0 0 0 0
8 8 6 4 1 1 2 2 1 1 1 1 0 0 0 0 0 0 0 0 0 0 0 0 0 0 0 0 0 0 0 0 0 0 0 0 0 0 0 0 0 0 0
13 10 7 5 3 3 6 6 4 3 3 2 1 1 1 1 0 0 0 0 0 0 0 0 0 0 0 0 0 0 0 0 0 0 0 0 0 0 0 0 0 0 0
18 14 10 7 6 7 8 8 6 5 5 4 3 3 3 3 2 0 0 0 0 0 0 0 0 0 0 0 0 0 0 0 0 0 0 0 0 0 0 0 0 0 0
25 20 16 14 13 12 10 8 7 7 6 5 4 4 5 5 4 2 0 0 0 1 0 0 0 0 0 0 0 0 0 0 0 0 0 0 0 0 0 0 0 0 0
32 27 23 24 21 16 12 10 10 9 9 7 5 5 6 5 4 3 1 0 0 0 0 0 1 0 0 0 0 0 1 1 0 0 0 0 0 0 0 0 0 0 0
36 31 28 30 27 20 16 15 15 14 11 8 6 5 5 4 3 3 2 1 1 0 0 1 2 2 1 1 0 0 1 2 1 0 1 1 1 0 0 0 1 1 1
39 34 31 32 30 24 21 21 21 18 13 10 8 6 4 3 2 2 3 2 2 2 1 2 4 6 5 4 2 1 1 2 1 0 1 1 1 0 0 0 1 2 2
43 40 37 37 34 30 27 27 24 21 16 13 12 9 6 3 2 3 3 3 3 3 3 2 4 8 8 7 5 2 0 1 1 0 0 1 1 0 0 0 1 1 2
44 42 40 41 39 35 31 28 25 21 18 16 15 12 8 4 4 4 3 3 4 4 4 3 4 6 7 7 6 4 1 0 0 0 1 2 2 1 1 0 0 0 1
38 36 37 41 41 38 34 31 28 24 20 17 14 12 9 7 6 5 4 5 6 5 5 4 4 4 4 4 5 5 3 1 0 0 1 2 2 2 2 1 0 0 0
34 30 31 37 40 39 38 37 33 27 21 17 13 11 10 9 7 5 5 5 6 5 4 4 4 3 3 3 4 5 4 1 0 0 0 1 1 1 2 2 1 0 1
35 31 29 34 38 37 37 37 34 28 21 16 12 9 9 9 8 5 4 4 4 4 4 5 5 4 2 2 4 5 4 1 0 0 0 0 0 0 1 1 1 0 1
32 31 28 28 31 33 34 34 32 26 22 17 12 9 8 9 10 8 7 6 4 3 4 7 8 7 7 7 6 4 3 1 0 0 0 0 0 0 0 0 0 0 1
27 27 24 22 24 28 30 30 28 26 24 21 17 14 11 10 13 14 14 13 9 4 2 6 11 12 13 11 6 5 6 3 0 0 0 0 0 0 0 0 0 0 0
26 25 22 18 18 22 26 27 25 24 25 25 23 21 17 14 16 19 20 19 16 9 4 7 12 15 15 11 7 10 12 7 1 0 0 0 0 0 0 0 0 0 0
27 25 21 18 15 17 22 24 21 21 23 24 25 25 23 20 20 21 22 21 18 13 8 7 12 17 17 15 14 15 15 11 4 1 0 0 0 0 0 0 0 0 0
26 22 19 18 15 15 20 21 18 17 20 22 24 25 24 23 23 22 21 20 16 13 9 7 10 16 21 23 24 20 13 8 5 1 0 0 0 0 0 0 0 0 0
25 21 18 18 17 16 17 17 16 15 17 20 22 22 20 21 23 22 20 19 15 11 9 6 8 13 18 23 26 20 9 5 3 1 0 0 0 0 0 0 0 0 0
25 23 21 20 18 15 13 14 14 14 14 16 17 18 16 16 19 19 18 18 15 11 9 7 6 10 14 18 20 16 7 3 2 0 0 0 0 0 0 0 0 0 0
23 25 25 21 16 11 8 9 11 13 13 12 12 13 11 10 11 11 12 13 12 9 9 7 6 7 10 13 13 10 5 2 1 1 2 1 1 0 0 0 0 0 0
22 24 25 22 14 6 3 3 7 10 11 10 9 8 6 5 5 5 5 5 4 5 5 5 4 4 7 9 8 6 3 1 1 2 3 2 2 1 0 0 0 0 0
21 22 22 20 13 5 1 0 3 7 10 10 8 6 5 3 3 4 4 2 2 1 2 1 1 1 3 5 4 3 3 1 1 2 3 2 2 2 2 1 0 0 0
20 20 19 17 12 5 1 0 2 7 9 9 7 6 6 5 4 5 6 5 4 2 1 0 0 0 1 1 1 2 2 1 1 2 3 3 4 4 4 2 1 0 0
19 17 14 13 11 5 1 0 2 6 8 8 6 6 5 5 4 4 5 5 5 4 2 1 0 0 0 0 0 0 0 0 1 2 4 4 5 5 5 3 1 0 0
17 14 12 11 9 5 2 1 1 4 6 7 6 5 4 4 3 3 4 4 4 4 3 3 1 0 0 0 0 0 0 0 1 2 4 4 5 5 4 3 2 1 0

GEFSMA_con_probscp_168.txt.gz
Probability
0 0 0 0 0 0 0 0 0 0 0 0 0 0 0 0 0 0 0 0 0 0 0 0 0 0 0 0 0 0 0 0 0 0 0 0 0 0 0 0 0 0 0
0 0 0 0 0 0 0 0 0 0 0 0 0 0 0 0 0 0 0 0 0 0 0 0 0 0 0 0 0 0 0 0 0 0 0 0 0 0 0 0 0 0 0
0 0 0 0 0 0 0 0 0 0 0 0 0 0 0 0 0 0 0 0 0 0 0 0 0 0 0 0 0 0 0 0 0 0 0 0 0 0 0 0 0 0 0
0 0 0 0 0 0 0 0 0 0 0 0 0 0 0 0 0 0 0 0 0 0 0 0 0 0 0 0 0 0 0 0 0 0 0 0 0 0 0 0 0 0 0
0 0 0 0 0 0 0 0 0 0 0 0 0 0 0 0 0 0 0 0 0 0 0 0 0 0 0 0 0 0 1 1 0 0 0 0 0 0 0 0 0 0 0
2 1 0 1 1 1 0 0 0 0 0 0 0 0 0 0 0 0 0 0 0 0 0 0 0 0 0 0 0 0 1 1 0 0 0 0 0 0 0 0 0 0 0
6 3 1 1 1 1 0 0 0 0 0 0 0 0 0 0 0 1 0 0 0 0 0 0 0 0 0 0 0 0 1 1 1 1 0 0 0 0 0 0 0 0 0
8 5 2 1 1 1 0 0 0 0 0 0 0 0 0 0 0 0 0 0 0 0 0 0 0 0 0 0 0 1 2 2 2 2 1 1 0 0 0 0 0 0 0
8 6 4 3 2 1 1 0 0 0 0 0 0 0 0 0 0 0 0 0 0 0 0 0 0 0 0 0 0 1 2 3 3 3 3 2 1 0 0 0 0 0 0
9 7 5 4 3 2 1 1 1 1 0 0 0 0 0 0 0 0 0 0 0 0 0 0 0 0 0 0 0 0 1 2 3 3 3 3 2 1 1 0 0 0 0
10 8 6 4 3 3 3 2 2 2 1 0 0 0 0 0 0 0 0 0 0 0 0 0 0 0 0 0 0 0 0 1 1 2 3 3 3 3 2 1 0 0 0
8 7 6 5 4 4 3 3 3 2 1 0 0 0 0 0 0 0 0 0 0 0 0 0 0 0 0 0 0 0 0 0 0 1 2 2 3 3 4 3 1 0 0
6 7 7 6 5 5 4 2 1 1 1 0 0 0 0 0 0 0 0 0 0 0 0 0 0 0 0 0 0 0 0 0 0 0 1 1 1 2 4 4 2 1 1
5 7 7 5 5 6 5 2 0 0 0 0 0 0 0 0 0 0 0 0 0 0 0 0 0 0 0 0 0 0 0 0 0 0 0 0 0 1 2 2 1 1 2
5 6 6 5 4 5 5 2 1 1 1 0 1 1 0 0 0 0 0 0 0 0 0 0 0 0 0 0 0 0 0 0 0 0 0 0 0 0 0 0 0 1 1
4 5 5 4 3 4 5 3 2 2 1 1 1 1 1 1 1 1 0 0 0 0 0 0 0 0 0 0 0 0 0 0 0 0 0 0 0 0 0 0 0 0 0
4 4 4 3 3 4 5 5 5 4 2 2 2 2 3 4 4 3 2 0 0 0 0 0 0 0 0 0 0 0 0 0 0 0 0 0 0 0 0 0 0 0 0
4 3 2 2 3 5 6 6 6 6 4 3 4 4 4 5 5 5 3 1 0 0 0 0 0 0 0 0 0 0 0 0 0 0 0 0 0 0 0 0 0 0 0
5 3 1 1 2 4 6 6 6 6 5 4 4 4 4 4 4 4 4 2 1 1 1 1 0 0 0 0 0 0 0 0 0 0 0 0 0 0 0 0 0 0 0
6 4 3 2 3 4 4 4 4 4 4 3 3 3 3 2 3 3 3 3 3 2 2 1 0 0 0 0 0 0 0 0 0 0 0 0 0 0 0 0 0 0 0
6 6 5 5 4 4 3 2 2 2 2 1 1 2 1 1 1 2 2 3 3 3 2 1 0 0 0 0 0 0 0 0 0 0 0 0 0 0 0 0 0 0 0
6 6 6 6 5 4 2 1 0 1 1 0 0 0 0 0 0 1 1 1 2 2 2 1 0 0 0 0 0 0 0 0 0 0 0 0 0 0 0 0 0 0 0
6 6 5 4 3 2 1 0 0 0 0 0 0 0 0 0 1 1 0 0 1 1 1 0 0 0 0 0 0 0 0 0 0 0 0 0 0 0 0 0 0 0 0
4 4 4 3 2 2 1 0 0 0 0 0 0 0 0 1 2 2 1 1 1 0 0 0 0 0 1 0 0 0 0 0 0 0 0 0 0 0 0 0 0 0 0
3 3 3 2 3 3 2 1 0 0 0 0 0 0 0 2 2 2 2 2 2 1 1 1 0 0 0 0 0 0 0 0 0 0 0 0 0 0 0 0 0 0 0
3 3 2 3 3 3 2 1 1 1 1 0 0 0 0 1 2 1 1 3 3 2 2 2 1 0 0 0 0 0 0 0 0 0 0 0 0 0 0 0 0 0 0

GEFSMA_con_probscp_174.txt.gz
Probability
0 0 0 0 0 0 0 0 0 0 0 0 0 0 0 0 0 0 0 0 0 0 0 0 0 0 0 0 0 0 0 0 0 0 0 0 0 0 0 0 0 0 0
0 0 0 0 0 0 0 0 0 0 0 0 0 0 0 0 0 0 0 0 0 0 0 0 0 0 0 0 0 0 0 0 0 0 0 0 0 0 0 0 0 0 0
0 0 0 0 0 0 0 0 0 0 0 0 0 0 0 0 0 0 0 0 0 0 0 0 0 0 0 0 0 0 0 0 0 0 0 0 0 0 0 0 0 0 0
0 0 0 0 0 0 1 1 0 0 0 0 0 0 0 0 0 0 0 0 0 0 0 0 0 0 0 0 0 0 0 0 0 0 0 0 0 0 0 0 0 0 0
0 0 0 0 0 1 2 1 0 0 0 0 0 0 0 0 0 0 0 0 0 0 0 0 0 0 0 0 0 0 0 0 0 0 0 0 0 0 0 0 0 0 0
0 0 0 0 0 1 2 1 0 0 0 0 0 0 0 0 0 0 0 0 0 0 0 0 0 0 0 0 0 0 0 0 0 0 0 0 0 0 1 1 0 0 0
1 1 0 0 0 1 1 0 0 0 0 0 0 0 0 0 0 0 0 0 0 0 0 0 0 0 0 0 0 0 0 0 0 0 0 1 1 1 2 2 1 0 0
3 2 1 1 0 0 0 0 0 0 0 0 0 0 0 0 0 0 0 0 0 0 0 0 0 0 0 0 0 0 0 0 0 0 1 2 2 2 2 2 1 0 0
4 4 3 2 1 1 1 0 0 0 0 0 0 0 0 0 0 0 0 0 0 0 0 0 0 0 0 0 0 0 0 0 0 0 2 3 4 3 3 2 1 0 0
5 5 5 4 3 2 2 1 0 0 0 0 0 0 0 0 0 0 0 0 0 0 0 0 0 0 0 0 0 0 0 0 0 0 1 2 3 3 3 3 2 1 1
7 7 6 4 3 3 2 1 0 0 0 0 0 0 0 0 0 0 0 0 0 0 0 0 0 0 0 0 0 0 0 0 0 0 0 1 1 2 3 5 4 4 3
7 7 6 4 2 2 1 0 0 0 0 0 0 0 0 0 0 0 0 0 0 0 0 0 1 0 0 0 0 0 0 0 0 0 0 0 0 1 4 6 6 5 5
5 6 6 3 1 1 0 0 0 0 0 0 0 0 0 0 0 0 0 0 0 0 0 0 0 0 0 0 0 0 0 0 0 0 0 0 0 0 2 3 4 4 4
6 6 6 4 2 1 1 1 1 0 1 1 1 1 0 0 0 0 0 0 0 0 0 0 0 0 0 0 0 0 0 0 0 0 0 0 0 0 0 1 1 2 2
5 6 6 5 4 3 3 3 3 2 2 3 3 2 2 1 1 0 0 0 0 0 0 0 0 0 0 0 0 0 0 0 0 0 0 0 0 0 0 0 0 1 1
3 4 5 5 5 6 6 6 5 5 4 3 4 3 3 3 3 1 1 1 1 1 0 0 0 0 0 0 0 0 0 0 0 0 0 0 0 0 0 0 0 0 0
2 3 4 5 6 6 6 6 6 5 4 3 3 4 4 5 5 4 3 2 2 2 1 0 0 0 0 0 0 0 0 0 0 0 0 0 0 0 0 0 0 0 0
5 5 5 6 6 6 6 5 4 4 3 3 3 4 5 5 5 5 4 3 3 3 2 1 1 1 1 1 0 0 0 0 0 0 0 0 0 0 0 0 0 0 0
6 6 6 6 6 6 6 4 3 3 3 3 3 4 4 4 4 4 3 3 3 3 3 2 1 1 2 2 1 0 0 0 0 0 0 0 0 0 0 0 0 0 0
6 6 6 6 6 6 5 4 3 3 3 3 3 3 3 3 3 3 3 3 3 3 3 3 2 1 2 3 2 0 0 0 0 0 0 0 0 0 0 0 0 0 0
6 6 5 5 6 5 4 3 3 3 3 3 3 3 3 3 2 2 2 2 2 3 3 3 1 0 1 2 2 1 0 0 0 0 0 0 0 0 0 0 0 0 0
6 6 6 5 4 4 2 2 2 3 3 3 3 2 2 1 1 1 1 1 1 1 2 2 1 0 1 2 2 2 1 0 0 0 0 0 0 0 0 0 0 0 0
6 6 5 5 4 3 1 0 1 1 2 2 1 1 1 0 0 0 0 0 0 0 1 1 0 0 0 1 2 2 1 1 0 0 0 0 0 0 0 0 0 0 0
4 4 4 4 4 3 1 0 0 0 1 2 1 0 1 1 0 0 0 0 0 0 0 0 0 0 0 1 1 1 1 1 1 1 1 1 0 0 0 0 0 0 0
2 2 2 2 3 2 1 0 0 0 1 2 2 1 1 1 0 0 0 0 0 0 1 1 0 0 0 0 0 0 0 0 0 1 2 1 0 0 0 0 0 0 0
1 1 1 1 1 1 0 0 0 0 0 1 2 2 1 1 0 0 0 0 0 1 2 2 1 0 0 0 0 0 0 0 0 1 2 2 1 0 0 0 0 0 0

GEFSMA_con_probscp_180.txt.gz
Probability
0 0 0 0 0 0 0 0 0 0 0 0 0 0 0 0 0 0 0 0 0 0 0 0 0 0 0 0 0 0 0 0 0 0 0 0 0 0 0 0 0 0 0
0 0 0 0 0 0 0 0 0 0 0 0 0 0 0 0 0 0 0 0 0 0 0 0 0 0 0 0 0 0 0 0 0 0 0 0 0 0 0 0 0 0 0
0 0 0 0 0 0 0 0 0 0 0 0 0 0 0 0 0 0 0 0 0 0 0 0 0 0 0 0 0 0 0 0 0 0 0 0 0 0 0 0 0 0 0
1 1 1 0 0 0 0 0 0 0 0 0 0 0 0 0 0 0 0 0 0 0 0 0 0 0 0 0 0 0 0 0 0 0 0 0 0 0 0 0 0 0 0
1 2 2 1 0 0 0 0 0 0 0 0 0 0 0 0 0 0 0 0 0 0 0 0 1 1 0 0 0 0 0 1 2 1 1 0 0 1 1 1 0 0 0
1 1 2 1 0 0 0 0 1 2 2 2 1 0 0 0 0 1 1 0 0 0 0 1 1 1 0 0 0 0 1 2 3 3 2 1 1 1 2 1 0 0 0
1 2 1 0 0 0 0 1 3 5 6 6 4 2 1 1 1 2 2 2 1 0 0 1 1 1 0 0 0 0 1 3 3 3 3 3 2 2 1 1 0 0 0
3 3 2 1 2 3 2 2 4 6 6 6 6 5 4 4 3 3 3 4 2 1 1 1 1 1 0 0 0 1 1 2 3 3 3 4 4 2 1 0 0 0 0
6 6 5 5 6 8 6 5 4 5 4 5 7 8 6 6 5 5 5 5 4 3 2 1 1 1 1 2 2 1 1 1 1 2 4 5 5 2 1 1 1 1 0
11 10 10 11 13 13 12 10 8 7 7 8 9 10 8 7 6 6 5 5 5 4 3 2 1 2 4 5 4 2 0 0 0 1 3 5 5 4 3 3 3 3 2
16 15 15 17 18 18 16 16 14 12 11 12 12 12 10 8 8 7 5 4 4 4 4 4 5 7 7 8 6 3 0 0 0 0 1 3 4 5 5 4 4 4 4
19 18 18 19 20 18 18 19 19 16 14 13 13 12 10 8 8 8 6 4 3 4 4 7 10 10 8 7 4 2 0 0 0 0 0 1 2 3 3 4 4 4 4
21 19 18 18 18 18 19 21 21 19 17 15 14 13 12 10 9 10 9 6 3 3 4 6 9 9 8 7 4 1 0 0 0 0 0 0 0 1 2 3 3 2 2
19 17 14 14 16 18 19 20 21 21 21 18 16 15 15 14 13 13 13 10 7 4 3 4 5 5 7 9 6 3 2 1 0 0 0 0 0 0 1 1 1 1 1
15 13 11 12 14 16 17 18 19 20 21 20 19 18 19 18 17 17 18 18 14 9 4 5 6 7 9 10 6 5 4 2 1 0 0 0 0 0 0 0 0 0 0
13 11 11 11 11 13 15 16 17 16 17 18 19 19 20 21 20 20 21 22 21 13 7 7 10 13 16 13 9 9 9 6 2 0 0 0 0 0 0 0 0 0 0
11 11 10 11 11 12 13 15 15 13 13 14 16 17 19 20 21 21 21 22 22 18 11 9 11 17 23 21 18 17 14 10 5 1 0 0 0 0 0 0 0 0 0
11 10 9 10 11 12 13 13 13 12 12 12 13 14 15 16 18 20 21 20 21 21 18 13 12 17 23 24 23 20 15 10 6 2 0 0 0 0 0 0 0 0 0
14 12 10 10 11 13 13 12 12 12 12 11 11 11 11 11 13 16 17 18 18 20 19 17 14 15 18 19 19 16 13 11 7 3 1 0 0 0 0 0 0 0 0
16 15 13 13 13 14 14 13 12 12 11 11 11 11 10 9 9 10 11 13 14 15 16 14 14 14 13 15 16 13 11 11 9 6 5 3 3 2 1 0 0 0 0
16 17 17 17 17 15 12 12 11 11 11 12 13 13 10 7 5 4 5 7 10 11 12 10 11 11 11 12 13 11 9 8 8 9 9 8 7 6 4 2 0 0 0
16 19 21 21 19 14 8 6 7 9 10 12 14 13 9 5 2 2 1 2 4 7 8 7 7 7 8 9 10 9 7 5 5 7 8 8 8 8 7 4 1 0 0
16 19 21 20 18 12 5 2 3 7 10 11 11 11 8 4 2 3 2 1 1 2 3 4 3 4 4 5 7 7 5 4 3 3 4 4 4 6 6 4 2 0 0
15 17 17 15 13 9 3 1 2 6 9 9 8 8 7 5 3 4 4 3 2 1 1 1 1 1 1 2 4 4 4 3 2 2 3 3 3 4 5 4 2 0 0
11 10 9 8 7 4 1 0 1 4 6 6 6 5 4 4 3 3 4 5 3 2 1 1 0 0 0 1 1 1 2 2 1 2 3 4 4 4 4 4 3 2 1
4 4 3 3 2 1 0 0 1 3 6 6 5 3 2 2 1 1 3 4 3 2 1 0 0 0 0 0 0 0 1 1 2 2 4 5 5 4 4 4 4 3 1